TimeCST,TemperatureF,Dew PointF,Humidity,Sea Level PressureIn,VisibilityMPH,Wind Direction,Wind SpeedMPH,Gust SpeedMPH,PrecipitationIn,Events,Conditions,WindDirDegrees,DateUTC
12:53 AM,26.1,25.0,96,30.27,8.0,SSW,6.9,-,N/A,,Clear,200,2013-01-06 06:53:00
1:53 AM,32.0,28.9,88,30.28,10.0,SSW,8.1,-,N/A,,Clear,210,2013-01-06 07:53:00
2:53 AM,28.9,27.0,92,30.28,9.0,South,3.5,-,N/A,,Clear,190,2013-01-06 08:53:00
3:53 AM,32.0,30.0,92,30.28,10.0,West,4.6,-,N/A,,Clear,260,2013-01-06 09:53:00
4:53 AM,24.1,23.0,96,30.30,6.0,SW,3.5,-,N/A,,Clear,230,2013-01-06 10:53:00
5:53 AM,25.0,24.1,96,30.31,6.0,West,5.8,-,N/A,,Clear,280,2013-01-06 11:53:00
6:53 AM,28.0,24.1,85,30.33,10.0,NW,4.6,-,N/A,,Clear,310,2013-01-06 12:53:00
7:53 AM,27.0,21.9,81,30.36,10.0,NW,5.8,-,N/A,,Clear,310,2013-01-06 13:53:00
8:53 AM,30.9,24.1,76,30.37,10.0,NNW,4.6,-,N/A,,Clear,340,2013-01-06 14:53:00
9:53 AM,33.8,24.8,70,30.36,10.0,NW,8.1,-,N/A,,Clear,320,2013-01-06 15:53:00
10:53 AM,36.0,24.1,62,30.39,10.0,NNW,8.1,-,N/A,,Clear,330,2013-01-06 16:53:00
11:53 AM,39.0,24.1,55,30.38,10.0,WNW,3.5,-,N/A,,Clear,290,2013-01-06 17:53:00
12:53 PM,43.0,24.1,47,30.35,10.0,NNW,9.2,-,N/A,,Clear,330,2013-01-06 18:53:00
1:53 PM,45.0,24.1,44,30.34,10.0,NW,5.8,-,N/A,,Clear,320,2013-01-06 19:53:00
2:53 PM,46.0,21.9,39,30.34,10.0,North,6.9,-,N/A,,Clear,360,2013-01-06 20:53:00
3:53 PM,45.0,21.9,40,30.35,10.0,North,5.8,-,N/A,,Clear,350,2013-01-06 21:53:00
4:53 PM,42.1,19.9,41,30.36,10.0,North,3.5,-,N/A,,Clear,350,2013-01-06 22:53:00
5:53 PM,30.0,21.9,72,30.36,10.0,Calm,Calm,-,N/A,,Clear,0,2013-01-06 23:53:00
6:53 PM,28.0,21.0,75,30.38,10.0,Calm,Calm,-,N/A,,Clear,0,2013-01-07 00:53:00
7:53 PM,25.0,21.0,85,30.39,10.0,SSW,3.5,-,N/A,,Clear,200,2013-01-07 01:53:00
8:53 PM,25.0,21.0,85,30.39,10.0,Calm,Calm,-,N/A,,Clear,0,2013-01-07 02:53:00
9:53 PM,24.1,19.9,84,30.40,10.0,Calm,Calm,-,N/A,,Clear,0,2013-01-07 03:53:00
10:53 PM,21.0,19.0,92,30.39,10.0,Calm,Calm,-,N/A,,Clear,0,2013-01-07 04:53:00
11:53 PM,21.0,18.0,88,30.39,10.0,Calm,Calm,-,N/A,,Clear,0,2013-01-07 05:53:00